Change the Weather History Date:

Sunday, October 20, 2013

  Actual Average (KBFD) Record (KBFD)
Temperature  
Mean Temperature 44 °F 45 °F  
Max Temperature 53 °F 56 °F 75 °F (1963)
Min Temperature 37 °F 35 °F 12 °F (1972)
Degree Days  
Heating Degree Days 21 15  
Month to date heating degree days 251  
Since 1 July heating degree days 668  
Cooling Degree Days 0 0  
Month to date cooling degree days 0  
Year to date cooling degree days 192  
Moisture  
Dew Point 34 °F    
Average Humidity 71    
Maximum Humidity 87    
Minimum Humidity 50    
Precipitation  
Precipitation 0.04 in 0.10 in 0.92 in (2006)
Month to date precipitation 2.27  
Year to date precipitation 36.14  
Sea Level Pressure  
Sea Level Pressure 29.92 in    
Wind  
Wind Speed 10 mph (WSW)    
Max Wind Speed 14 mph    
Max Gust Speed 23 mph    
Visibility 10 miles    
Events Rain    
T = Trace of Precipitation, MM = Missing Value Source: NWS Daily Summary

Daily Weather History Graph

Daily Weather History Graph

Search for Another Location

Airport or City:

Trip Planner

Search our weather history database for the weather conditions in past years. The results will help you decide how hot, cold, wet, or windy it might be!

Date:

Astronomy

Oct. 20, 2013 Rise Set
Actual Time 7:30 AM EDT 6:22 PM EDT
Civil Twilight 7:02 AM EDT 6:50 PM EDT
Nautical Twilight 6:29 AM EDT 7:22 PM EDT
Astronomical Twilight 5:57 AM EDT 7:55 PM EDT
Moon 7:27 PM EDT (10/20) 9:08 AM EDT (10/20)
Length of Visible Light 11h 48m
Length of Day
10h 51m
Full, 97% of the Moon is Illuminated
Oct 20
Full
Oct 26
Last Quarter
Nov 3
New
Nov 10
First Quarter
Nov 17
Full

Hourly Weather History & Observations

Time (EDT) Temp. Windchill Dew Point Humidity Pressure Visibility Wind Dir Wind Speed Gust Speed Precip Events Conditions
12:19 AM 41.0 °F 33.9 °F 37.4 °F 87% 29.80 in 10.0 mi West 12.7 mph 18.4 mph 0.01 in Rain Light Rain
12:56 AM 39.9 °F 33.4 °F 36.0 °F 86% 29.82 in 10.0 mi West 10.4 mph - 0.03 in   Mostly Cloudy
1:07 AM 39.2 °F 31.2 °F 35.6 °F 87% 29.80 in 10.0 mi West 13.8 mph 19.6 mph 0.00 in Rain Light Rain
1:15 AM 39.2 °F 32.0 °F 35.6 °F 87% 29.80 in 10.0 mi West 11.5 mph 19.6 mph 0.00 in   Mostly Cloudy
1:56 AM 41.0 °F 33.5 °F 36.0 °F 82% 29.84 in 10.0 mi West 13.8 mph - 0.01 in   Overcast
2:56 AM 39.9 °F 35.1 °F 35.1 °F 83% 29.85 in 10.0 mi West 6.9 mph 17.3 mph N/A   Mostly Cloudy
3:18 AM 39.2 °F 32.5 °F 33.8 °F 81% 29.83 in 10.0 mi West 10.4 mph - N/A   Mostly Cloudy
3:26 AM 39.2 °F 33.6 °F 33.8 °F 81% 29.83 in 10.0 mi WSW 8.1 mph 17.3 mph N/A   Mostly Cloudy
3:56 AM 39.9 °F 33.9 °F 34.0 °F 79% 29.86 in 10.0 mi West 9.2 mph 21.9 mph N/A   Mostly Cloudy
4:41 AM 39.2 °F 32.5 °F 33.8 °F 81% 29.84 in 10.0 mi West 10.4 mph - N/A   Scattered Clouds
4:56 AM 39.0 °F 34.0 °F 33.1 °F 79% 29.88 in 10.0 mi Variable 6.9 mph - N/A   Scattered Clouds
5:56 AM 39.0 °F 33.4 °F 33.1 °F 79% 29.89 in 10.0 mi WSW 8.1 mph - N/A   Mostly Cloudy
6:56 AM 37.9 °F 30.5 °F 33.1 °F 83% 29.90 in 10.0 mi WSW 11.5 mph 17.3 mph N/A   Partly Cloudy
7:56 AM 39.0 °F 32.3 °F 34.0 °F 82% 29.91 in 10.0 mi WSW 10.4 mph 17.3 mph N/A   Scattered Clouds
8:56 AM 39.9 °F 32.5 °F 35.1 °F 83% 29.94 in 7.0 mi WSW 12.7 mph 20.7 mph 0.00 in Rain Light Rain
9:56 AM 42.1 °F 35.2 °F 35.1 °F 76% 29.95 in 10.0 mi WSW 12.7 mph 23.0 mph 0.00 in   Partly Cloudy
10:56 AM 46.0 °F 40.6 °F 37.0 °F 71% 29.96 in 10.0 mi West 11.5 mph 20.7 mph N/A   Mostly Cloudy
11:56 AM 46.9 °F - 36.0 °F 66% 29.97 in 10.0 mi SW 9.2 mph - N/A   Overcast
12:56 PM 50.0 °F - 34.0 °F 54% 29.97 in 10.0 mi WSW 13.8 mph 20.7 mph N/A   Overcast
1:56 PM 50.0 °F - 34.0 °F 54% 29.96 in 10.0 mi WSW 9.2 mph - N/A   Overcast
2:56 PM 51.1 °F - 34.0 °F 52% 29.96 in 10.0 mi West 6.9 mph - N/A   Overcast
3:56 PM 51.1 °F - 33.1 °F 50% 29.96 in 10.0 mi WSW 11.5 mph 20.7 mph N/A   Overcast
4:56 PM 51.1 °F - 34.0 °F 52% 29.98 in 10.0 mi WSW 8.1 mph - 0.00 in   Mostly Cloudy
5:56 PM 48.9 °F - 34.0 °F 56% 29.99 in 10.0 mi WSW 6.9 mph 17.3 mph N/A   Partly Cloudy
6:56 PM 48.9 °F - 33.1 °F 54% 30.01 in 10.0 mi WSW 8.1 mph - N/A   Partly Cloudy
7:56 PM 46.0 °F 43.9 °F 33.1 °F 61% 30.03 in 10.0 mi SW 4.6 mph - N/A   Clear
8:56 PM 46.0 °F 41.4 °F 33.1 °F 61% 30.03 in 10.0 mi SW 9.2 mph - N/A   Clear
9:56 PM 45.0 °F 42.6 °F 33.1 °F 63% 30.04 in 10.0 mi SSW 4.6 mph - N/A   Partly Cloudy
10:56 PM 46.0 °F 42.5 °F 33.1 °F 61% 30.04 in 10.0 mi SSW 6.9 mph - N/A   Mostly Cloudy
11:56 PM 44.1 °F 39.5 °F 34.0 °F 68% 30.04 in 10.0 mi SSW 8.1 mph - N/A   Mostly Cloudy